Location: Ehingen
(48.2869°N, 9.7112°E)
Time: 14:00:18
(UTC+02:00)

ISS - Pass Details

Date: 29 March 2017
Orbit: 400 x 409 km, 51.6° (Epoch: 23 April)

Event Time Altitude Azimuth Distance (km) Brightness Sun altitude
Rises 21:36:37 0° 242° (WSW) 2,310 0.5 -18.1°
Reaches altitude 10° 21:38:41 10° 240° (WSW) 1,456 -0.6 -18.4°
Maximum altitude 21:41:57 76° 154° (SSE) 421 -4.0 -18.9°
Enters shadow 21:41:58 76° 148° (SSE) 422 -4.0 -18.9°
